Tracking 31027 objects as of 19-Jul-2025
HD Live streaming from Space Station
objects crossing your sky now

DELTA 2 R/B(2)

Track DELTA 2 R/B(2) now!


NORAD ID: 23018
Int'l Code: 1994-013C
Perigee: 2,967.4 km
Apogee: 37,092.3 km
Inclination: 25.5 °
Period: 711.5 minutes
Semi major axis: 26400 km
RCS: 3.4432 m2 (large)
Launch date: February 19, 1994
Source: United States (US)
Launch site: AIR FORCE EASTERN TEST RANGE (AFETR)

Note: This is a ROCKET BODY
Your satellite tracking list
COSMOS 830
Track 1 satellite(s)




NASA's NSSDC Master Catalog

Two Line Element Set (TLE):
1 23018U 94013C   25199.26820169 -.00000250  00000-0  00000-0 0  9999
2 23018  25.4539 294.2114 6462830 116.6251 321.8482  2.02383442231987
Source of the keplerian elements: AFSPC